Terminal Aerodrome Forecast
Issued by NWS

Home | Current Version | Previous Version | Graphics & Text | Print | Product List | Glossary On
Versions: 1 2 3 4 5 6 7 8 9 10 11 12 13 14 15
000
FTUS43 KFGF 241700
TAFBJI
TAF
KBJI 241733Z 2418/2518 32017G24KT 4SM -SN OVC015
      TEMPO 2418/2421 2SM -SN BR
     FM250000 31014G20KT P6SM SCT250
     FM250600 27004KT P6SM OVC100
     FM251000 25004KT P6SM OVC050=

USA.gov is the U.S. government's official web portal to all federal, state and local government web resources and services.